Regional Weather Roundup
Issued by NWS

Home | Current Version | Previous Version | Text Only | Print | Product List | Glossary On
Versions: 1 2 3 4 5 6 7 8 9 10 11 12 13 14 15 16 17 18 19 20 21 22 23 24 25 26 27 28 29 30 31 32 33 34 35 36 37 38 39 40 41 42 43 44 45 46 47 48 49 50
000
ASUS43 KBIS 222310
RWRND

NORTH DAKOTA REGIONAL WEATHER ROUNDUP
NATIONAL WEATHER SERVICE BISMARCK ND
600 PM CDT MON SEP 22 2014

NOTE: "FAIR" INDICATES FEW OR NO CLOUDS BELOW 12,000 FEET WITH NO
SIGNIFICANT WEATHER AND/OR OBSTRUCTIONS TO VISIBILITY.


NDZ001>003-009>011-017-230000-
NORTHWEST NORTH DAKOTA

CITY           SKY/WX    TMP DP  RH WIND       PRES   REMARKS
WILLISTON      SUNNY     82  48  30 SE13      29.87F
MINOT          SUNNY     80  45  28 SE12      29.92F
MINOT AFB      SUNNY     79  48  32 SE15      29.91F
$$

NDZ018>021-031>035-040>046-230000-
SOUTHWEST NORTH DAKOTA

CITY           SKY/WX    TMP DP  RH WIND       PRES   REMARKS
BISMARCK       SUNNY     79  48  33 SE16      29.95F
DICKINSON      MOSUNNY   74  50  42 S18       29.91F
GARRISON         N/A     78  50  37 SE13      29.92F
HETTINGER ARPT MOSUNNY   77  48  35 SE15G24   29.92F
$$

NDZ004>008-012>016-024-026-027-054-230000-
NORTHEAST NORTH DAKOTA

CITY           SKY/WX    TMP DP  RH WIND       PRES   REMARKS
GRAND FORKS    SUNNY     76  47  35 S9        30.02S
GRND FRKS AFB  SUNNY     76  44  32 SW12      30.02F
DEVILS LAKE    SUNNY     75  45  33 S12       29.98F
$$

NDZ022-023-025-028>030-036>039-047>053-230000-
SOUTHEAST NORTH DAKOTA

CITY           SKY/WX    TMP DP  RH WIND       PRES   REMARKS
FARGO          SUNNY     76  46  34 S10       30.05F
JAMESTOWN      SUNNY     73  48  41 S9        30.02F
$$



USA.gov is the U.S. government's official web portal to all federal, state and local government web resources and services.